This is the latest recevied weather packets stored in our database for station/object SR6WVX. If no packets are shown the sender has not sent any weather packets the latest 10 day(s).
| Time | Temp. | Humidity | Pressure | Rain* | Wind** | Luminosity | Snow |
|---|---|---|---|---|---|---|---|
| 1777614114 | 13.89° C | 56% | 1023.8 hPa | 0 mm | - | - | - |
| 1777613814 | 13.89° C | 57% | 1023.7 hPa | 0 mm | - | - | - |
| 1777613514 | 13.89° C | 59% | 1023.6 hPa | 0 mm | - | - | - |
| 1777613214 | 12.78° C | 61% | 1023.8 hPa | 0 mm | - | - | - |
| 1777612913 | 12.22° C | 62% | 1023.5 hPa | 0 mm | - | - | - |
| 1777612613 | 11.67° C | 62% | 1023.7 hPa | 0 mm | - | - | - |
| 1777612313 | 11.67° C | 65% | 1023.7 hPa | 0 mm | - | - | - |
| 1777612012 | 11.11° C | 66% | 1023.7 hPa | 0 mm | - | - | - |
| 1777611712 | 11.11° C | 66% | 1023.8 hPa | 0 mm | - | - | - |
| 1777611412 | 11.11° C | 70% | 1023.7 hPa | 0 mm | - | - | - |
| 1777611112 | 11.11° C | 72% | 1023.7 hPa | 0 mm | - | - | - |
| 1777610811 | 10.56° C | 75% | 1023.7 hPa | 0 mm | - | - | - |
| 1777610511 | 9.44° C | 81% | 1023.5 hPa | 0 mm | - | - | - |
| 1777610211 | 8.33° C | 84% | 1023.7 hPa | 0 mm | - | - | - |
| 1777609911 | 7.22° C | 86% | 1023.7 hPa | 0 mm | - | - | - |
| 1777609610 | 6.11° C | 87% | 1023.8 hPa | 0 mm | - | - | - |
| 1777609310 | 5.56° C | 88% | 1023.8 hPa | 0 mm | - | - | - |
| 1777609010 | 4.44° C | 88% | 1023.8 hPa | 0 mm | - | - | - |
| 1777608710 | 3.33° C | 87% | 1023.6 hPa | 0 mm | - | - | - |
| 1777608409 | 3.33° C | 87% | 1023.7 hPa | 0 mm | - | - | - |
| 1777608109 | 3.33° C | 87% | 1023.6 hPa | 0 mm | - | - | - |
| 1777607809 | 2.78° C | 87% | 1023.6 hPa | 0 mm | - | - | - |
| 1777607509 | 2.78° C | 87% | 1023.5 hPa | 0 mm | - | - | - |
| 1777607208 | 2.78° C | 87% | 1023.5 hPa | 0 mm | - | - | - |
| 1777606908 | 2.22° C | 86% | 1023.4 hPa | 0 mm | - | - | - |
* Rain latest hour (hover to see other rain measurements)
** Current wind speed in m/s (hover to see current wind gust speed)